Weather observations for the past three days for
Portland, Portland International Jetport
Metric (Imperial)
Date Time (edt) Wind (kph) Vis. (km) Weather Sky Cond. Temperature (ºC) Relative Humidity Wind Chill (°C) Heat Index (°C) Pressure Precipitation (cm)
Air Dwpt 6 hour altimeter (cm) sea level (mb) 1 hr 3 hr 6 hr
Max. Min.
04 12:51 E 11 16.09 Mostly Cloudy FEW039 SCT075 BKN090 23.3 18.3 74% 75.64 1008.5
04 11:51 E 15 16.09 Partly Cloudy FEW010 SCT065 24.4 18.9 72% 25 75.69 1009.0
04 10:51 Calm 16.09 A Few Clouds FEW010 FEW100 23.9 18.3 71% 25 75.72 1009.4
04 09:51 Calm 16.09 A Few Clouds FEW010 FEW200 21.7 17.8 79% 75.74 1009.6
04 08:51 N 6 16.09 Mostly Cloudy BKN004 19.4 17.2 87% 75.74 1009.7
04 07:51 N 6 4.83 Fog/Mist OVC004 18.3 17.2 18.3 17.2 93% 75.74 1009.7
04 06:51 W 6 4.83 Fog/Mist OVC002 17.8 17.2 96% 75.74 1009.6
04 05:51 W 9 2.01 Fog/Mist OVC002 17.2 17.2 100% 75.72 1009.4
04 04:51 W 6 1.61 Fog/Mist OVC003 17.8 17.2 96% 75.72 1009.4
04 03:51 Calm 9.66 Fog/Mist OVC003 17.8 17.2 96% 75.72 1009.5
04 02:51 Calm 16.09 Overcast OVC007 17.8 17.2 96% 75.74 1009.9
04 01:51 Calm 16.09 Overcast OVC011 17.2 16.7 18.9 16.7 97% 75.79 1010.6
04 00:51 Calm 16.09 Mostly Cloudy FEW080 BKN100 16.7 16.1 96% 75.84 1011.1
03 23:51 W 6 16.09 Fair CLR 17.8 16.7 93% 75.87 1011.4
03 22:51 SW 6 16.09 Overcast BKN014 OVC020 18.3 16.7 90% 75.9 1011.8
03 21:51 Calm 16.09 Overcast OVC015 18.9 16.7 87% 75.95 1012.3
03 20:51 Calm 16.09 Overcast OVC013 18.3 16.7 90% 75.92 1012.3
03 19:51 Calm 16.09 Overcast OVC018 18.3 16.1 18.9 17.2 87% 75.9 1011.9
03 18:51 E 6 16.09 Mostly Cloudy FEW013 BKN020 18.3 16.1 87% 75.92 1012.1
03 17:51 Calm 16.09 Overcast OVC014 18.9 16.7 87% 75.95 1012.4
03 16:51 Calm 16.09 Overcast OVC009 18.3 16.1 87% 75.95 1012.3
03 15:51 NE 9 6.44 Fog/Mist OVC004 17.2 16.7 97% 75.97 1012.7
03 14:51 E 7 3.22 Fog/Mist OVC003 17.2 16.1 93% 76.02 1013.5
03 13:51 E 13 16.09 Overcast OVC006 17.8 16.7 17.8 16.1 93% 76.05 1013.8 0.05
03 12:51 E 11 4.83 Fog/Mist OVC006 17.2 16.7 97% 76.05 1013.8
03 11:51 E 11 2.41 Fog/Mist OVC003 17.2 16.7 97% 76.1 1014.6
03 10:51 E 11 1.61 Fog/Mist OVC003 16.7 16.1 96% 76.17 1015.4 0.05
03 09:51 SE 9 2.41 Fog/Mist OVC005 16.7 16.1 96% 76.2 1015.7
03 08:51 SE 7 2.41 Light Rain Fog/Mist BKN006 OVC010 16.1 15.6 97% 76.23 1016.1 0.05
03 07:51 S 6 16.09 Overcast BKN026 OVC033 16.1 14.4 17.2 16.1 90% 76.25 1016.5 0.08
03 06:51 SE 7 14.48 Overcast FEW018 OVC041 16.1 15 93% 76.25 1016.4
03 05:51 S 9 12.87 Light Rain FEW017 BKN055 OVC080 16.7 15.6 93% 76.28 1016.9 0.08
03 04:51 Calm 16.09 Overcast BKN055 OVC070 17.2 15.6 90% 76.28 1017.0
03 03:51 E 9 16.09 Overcast OVC080 16.7 15.6 93% 76.28 1016.9
03 02:51 E 6 16.09 Overcast BKN070 OVC095 16.1 15.6 97% 76.35 1018.0
03 01:51 E 7 8.05 Fog/Mist OVC002 16.1 15.6 16.1 15.6 97% 76.43 1018.8
03 00:51 E 7 14.48 Overcast OVC003 16.1 15.6 97% 76.45 1019.2
02 23:51 Calm 12.87 Overcast OVC005 16.1 15.6 97% 76.5 1020.1
02 22:51 E 7 16.09 Overcast OVC006 16.1 15 93% 76.53 1020.3
02 21:51 Calm 16.09 Overcast OVC006 16.1 14.4 90% 76.58 1020.8
02 20:51 SE 7 16.09 Overcast OVC007 15.6 13.9 90% 76.56 1020.5
02 19:51 SE 9 16.09 Overcast OVC007 15.6 14.4 18.3 15.6 93% 76.58 1021.1
02 18:51 E 9 16.09 Overcast BKN008 OVC055 16.1 14.4 90% 76.63 1021.5
02 17:51 E 11 16.09 Overcast SCT009 BKN050 OVC075 16.7 14.4 86% 76.63 1021.7
02 16:51 E 13 16.09 Overcast OVC055 17.8 14.4 81% 76.66 1022.0
02 15:51 E 13 16.09 Overcast OVC055 17.2 14.4 84% 76.71 1022.6
02 14:51 E 11 16.09 Overcast OVC060 17.8 13.9 78% 76.73 1022.8
02 13:51 E 13 16.09 Overcast FEW015 FEW035 OVC065 17.8 13.3 18.9 16.1 75% 76.73 1023.1
02 12:51 E 15 16.09 Overcast FEW030 OVC060 17.8 13.9 78% 76.73 1023.0
02 11:51 E 15 16.09 Overcast FEW030 OVC065 18.3 13.3 73% 76.78 1023.5
02 10:51 E 15 16.09 Overcast SCT049 BKN070 OVC090 18.3 13.3 73% 76.76 1023.3
02 09:51 E 15 16.09 Mostly Cloudy FEW010 FEW050 BKN090 18.9 13.3 70% 76.73 1022.8
02 08:51 E 11 16.09 Mostly Cloudy BKN009 17.2 15 87% 76.73 1022.9
02 07:51 E 6 9.66 Fog/Mist OVC002 16.1 15.6 16.7 15.6 97% 76.73 1023.0
02 06:51 E 9 1.21 Fog/Mist VV002 15.6 15.6 100% 76.68 1022.4
02 05:51 E 13 2.01 Fog/Mist OVC002 15.6 15 96% 76.68 1022.4
02 04:51 E 11 1.21 Fog/Mist VV002 16.1 15.6 97% 76.68 1022.1
02 03:51 E 6 12.87 Overcast OVC005 16.7 15.6 93% 76.63 1021.7
02 02:51 Calm 12.87 Overcast OVC005 16.7 15.6 93% 76.61 1021.3
02 01:51 Calm 14.48 Overcast OVC006 16.7 15.6 18.3 16.1 93% 76.61 1021.4
02 00:51 SE 6 14.48 Overcast OVC006 16.7 16.1 96% 76.56 1020.6
01 23:51 Calm 6.44 Fog/Mist BKN005 OVC010 17.2 16.1 93% 76.56 1020.4
01 21:51 Calm 2.41 Fog/Mist OVC003 17.2 16.1 93% 76.5 1019.9
01 20:51 Calm 2.41 Fog/Mist OVC002 16.7 16.1 96% 76.5 1019.8
01 19:51 E 9 16.09 Overcast OVC004 16.7 16.1 21.1 16.7 96% 76.45 1019.3
01 18:51 E 11 16.09 Overcast OVC005 17.8 16.1 90% 76.43 1019.0
01 17:51 E 11 16.09 Overcast OVC008 18.3 16.7 90% 76.43 1018.9
01 16:51 E 11 16.09 Overcast SCT010 OVC085 18.9 16.7 87% 76.4 1018.5
01 15:51 E 13 16.09 Overcast OVC080 19.4 16.1 81% 76.38 1018.3
01 14:51 E 17 16.09 Overcast OVC080 20 16.1 78% 76.4 1018.4
01 13:51 SE 13 16.09 Overcast OVC080 21.1 15.6 22.2 15 71% 76.38 1018.1
Date Time (edt) Wind (kph) Vis. (km) Weather Sky Cond. Air Dwpt Max. Min. Relative Humidity Wind Chill (°C) Heat Index (°C) altimeter (cm) sea level (mb) 1 hr 3 hr 6 hr
6 hour
Temperature (ºC) Pressure Precipitation (cm)